Volver al catálogo

STARLINK-11343

ActivoComunicacionesVLEO
NORAD 62017·PAYLOAD·🇺🇸 United States

Lanzado Nov 18, 2024 desde Vandenberg Space Force Base

Loading…

Próximos Pases (próximas 24 horas)

TLE

ActualizadoSource: CelesTrak SupGP

Época: Sep 15, 2026, 03:30 UTC

1 62017C 24213K   26258.14631944 -.00038556  00000+0 -31749-3 0  2586
2 62017  53.1571 187.4230 0001201  83.8096 144.7621 15.69736430    13

Sigue STARLINK-11343 en tiempo real con AllMySat

Download on the App Store